Location: Kampung Segan
(3.1399°N, 113.1002°E)
Time: 07:24:06
(UTC+00:00)

MOS 1-B Rocket - Pass Details

Date: 19 October 2025
Orbit: 891 x 1603 km, 99.0° (Epoch: 17 November)

Event Time Altitude Azimuth Distance (km) Brightness Sun altitude
Rises 18:25:15 0° 55° (NE) 4,741 7.9 -56.3°
Reaches altitude 10° 18:30:44 10° 82° (E) 3,810 7.4 -55.0°
Maximum altitude 18:33:59 12° 104° (ESE) 3,633 7.3 -54.2°
Drops below altitude 10° 18:37:13 10° 125° (SE) 3,807 7.4 -53.4°
Sets 18:42:36 0° 151° (SSE) 4,735 7.9 -52.1°
